TimeEDT,TemperatureF,Dew PointF,Humidity,Sea Level PressureIn,VisibilityMPH,Wind Direction,Wind SpeedMPH,Gust SpeedMPH,PrecipitationIn,Events,Conditions,WindDirDegrees,DateUTC
12:15 AM,51.6,46.8,83,30.08,10.0,ENE,9.2,-,N/A,,Scattered Clouds,70,2013-03-18 04:15:00
12:35 AM,51.3,46.6,84,30.09,10.0,ENE,10.4,-,N/A,,Scattered Clouds,70,2013-03-18 04:35:00
12:55 AM,51.3,46.6,84,30.09,10.0,ENE,8.1,-,N/A,,Mostly Cloudy,60,2013-03-18 04:55:00
1:15 AM,50.4,45.5,83,30.09,10.0,ENE,8.1,-,N/A,,Overcast,60,2013-03-18 05:15:00
1:35 AM,50.0,44.8,82,30.09,10.0,ENE,11.5,-,N/A,,Mostly Cloudy,60,2013-03-18 05:35:00
1:55 AM,50.0,44.8,82,30.10,10.0,ENE,10.4,-,N/A,,Mostly Cloudy,70,2013-03-18 05:55:00
2:15 AM,49.6,44.8,83,30.09,10.0,NE,8.1,-,N/A,,Mostly Cloudy,50,2013-03-18 06:15:00
2:35 AM,49.3,44.1,82,30.09,10.0,NE,6.9,-,N/A,,Mostly Cloudy,50,2013-03-18 06:35:00
2:55 AM,48.7,43.7,83,30.08,10.0,NE,6.9,-,N/A,,Mostly Cloudy,40,2013-03-18 06:55:00
3:15 AM,48.4,43.2,82,30.09,10.0,NE,8.1,-,N/A,,Mostly Cloudy,40,2013-03-18 07:15:00
3:35 AM,47.8,42.8,83,30.08,10.0,NE,11.5,16.1,N/A,,Mostly Cloudy,50,2013-03-18 07:35:00
3:55 AM,47.7,42.4,82,30.08,10.0,ENE,8.1,-,N/A,,Mostly Cloudy,60,2013-03-18 07:55:00
4:15 AM,47.5,42.1,82,30.07,10.0,ENE,10.4,-,N/A,,Mostly Cloudy,70,2013-03-18 08:15:00
4:35 AM,47.3,41.9,82,30.08,10.0,NE,6.9,-,N/A,,Mostly Cloudy,50,2013-03-18 08:35:00
4:55 AM,47.3,41.9,82,30.08,10.0,NE,5.8,-,N/A,,Overcast,40,2013-03-18 08:55:00
5:15 AM,46.9,41.2,80,30.08,10.0,NE,8.1,-,N/A,,Overcast,50,2013-03-18 09:15:00
5:35 AM,46.8,41.0,80,30.09,10.0,NNE,5.8,-,N/A,,Mostly Cloudy,20,2013-03-18 09:35:00
5:55 AM,46.0,41.5,84,30.09,10.0,NNE,4.6,-,N/A,,Mostly Cloudy,30,2013-03-18 09:55:00
6:15 AM,46.2,41.9,85,30.10,10.0,NE,4.6,-,N/A,,Light Drizzle,40,2013-03-18 10:15:00
6:35 AM,46.0,42.4,87,30.09,10.0,ENE,5.8,-,N/A,,Scattered Clouds,70,2013-03-18 10:35:00
6:55 AM,45.9,42.1,87,30.10,10.0,NE,6.9,-,N/A,,Scattered Clouds,40,2013-03-18 10:55:00
7:15 AM,45.9,41.9,86,30.11,10.0,North,5.8,-,N/A,,Mostly Cloudy,360,2013-03-18 11:15:00
7:35 AM,45.5,41.4,85,30.12,10.0,NNE,5.8,-,N/A,,Overcast,30,2013-03-18 11:35:00
7:55 AM,45.5,41.4,85,30.13,10.0,NNE,3.5,-,N/A,,Overcast,20,2013-03-18 11:55:00
8:15 AM,45.5,41.7,87,30.12,7.0,NE,5.8,-,N/A,,Overcast,40,2013-03-18 12:15:00
8:35 AM,45.9,41.9,86,30.11,7.0,NNE,5.8,-,N/A,,Scattered Clouds,30,2013-03-18 12:35:00
8:55 AM,46.6,41.9,84,30.12,7.0,NE,5.8,-,N/A,,Mostly Cloudy,40,2013-03-18 12:55:00
9:15 AM,47.1,42.4,84,30.12,7.0,NE,9.2,-,N/A,,Overcast,50,2013-03-18 13:15:00
9:35 AM,47.3,42.3,83,30.13,7.0,NNE,5.8,-,N/A,,Overcast,20,2013-03-18 13:35:00
9:55 AM,47.3,42.4,83,30.14,7.0,North,3.5,-,N/A,,Overcast,10,2013-03-18 13:55:00
10:15 AM,48.4,43.3,83,30.12,7.0,NE,8.1,-,N/A,,Overcast,40,2013-03-18 14:15:00
10:35 AM,48.7,43.3,82,30.11,7.0,NE,10.4,-,N/A,,Overcast,50,2013-03-18 14:35:00
10:55 AM,49.3,43.9,82,30.11,7.0,ENE,9.2,-,N/A,,Overcast,60,2013-03-18 14:55:00
11:15 AM,49.5,44.2,82,30.11,7.0,ENE,6.9,-,N/A,,Overcast,70,2013-03-18 15:15:00
11:35 AM,50.0,44.6,82,30.10,7.0,NE,6.9,-,N/A,,Overcast,50,2013-03-18 15:35:00
11:55 AM,50.5,44.8,81,30.10,7.0,ENE,8.1,-,N/A,,Overcast,60,2013-03-18 15:55:00
12:15 PM,51.1,45.1,80,30.10,7.0,NE,5.8,-,N/A,,Overcast,50,2013-03-18 16:15:00
12:35 PM,53.2,46.6,78,30.08,7.0,ENE,8.1,-,N/A,,Overcast,60,2013-03-18 16:35:00
12:55 PM,54.0,46.6,76,30.08,10.0,ENE,8.1,-,N/A,,Mostly Cloudy,70,2013-03-18 16:55:00
1:15 PM,55.6,46.9,73,30.06,10.0,ENE,4.6,-,N/A,,Clear,70,2013-03-18 17:15:00
1:35 PM,57.4,47.7,70,30.05,10.0,NNE,3.5,-,N/A,,Clear,30,2013-03-18 17:35:00
1:55 PM,59.4,47.8,66,30.04,10.0,Calm,Calm,-,N/A,,Clear,0,2013-03-18 17:55:00
2:15 PM,61.7,48.9,63,30.03,10.0,NE,4.6,-,N/A,,Clear,50,2013-03-18 18:15:00
2:35 PM,61.5,48.9,63,30.01,10.0,NE,4.6,-,N/A,,Scattered Clouds,40,2013-03-18 18:35:00
2:55 PM,63.0,49.6,62,29.98,10.0,NE,5.8,-,N/A,,Scattered Clouds,50,2013-03-18 18:55:00
3:15 PM,64.0,50.2,61,29.98,10.0,Calm,Calm,-,N/A,,Scattered Clouds,0,2013-03-18 19:15:00
3:35 PM,64.0,50.2,61,29.97,10.0,Calm,Calm,-,N/A,,Mostly Cloudy,0,2013-03-18 19:35:00
3:55 PM,64.2,50.4,61,29.96,10.0,Calm,Calm,-,N/A,,Mostly Cloudy,0,2013-03-18 19:55:00
4:15 PM,64.4,50.9,62,29.95,10.0,Calm,Calm,-,N/A,,Scattered Clouds,0,2013-03-18 20:15:00
4:35 PM,64.4,51.3,62,29.95,10.0,Calm,Calm,-,N/A,,Mostly Cloudy,0,2013-03-18 20:35:00
4:55 PM,65.3,51.8,62,29.95,2.0,Calm,Calm,-,N/A,,Haze,0,2013-03-18 20:55:00
5:15 PM,65.3,53.4,65,29.95,10.0,South,5.8,-,N/A,,Overcast,170,2013-03-18 21:15:00
5:35 PM,64.8,53.2,66,29.94,10.0,South,6.9,-,N/A,,Overcast,170,2013-03-18 21:35:00
5:55 PM,64.2,53.1,67,29.94,10.0,SSE,5.8,-,N/A,,Overcast,160,2013-03-18 21:55:00
6:15 PM,63.5,53.1,69,29.93,10.0,SE,5.8,-,N/A,,Overcast,140,2013-03-18 22:15:00
6:35 PM,62.8,53.2,71,29.93,10.0,South,5.8,-,N/A,,Overcast,170,2013-03-18 22:35:00
6:55 PM,62.6,53.6,72,29.93,10.0,SSE,6.9,-,N/A,,Overcast,160,2013-03-18 22:55:00
7:15 PM,61.7,53.6,75,29.93,10.0,SSE,6.9,-,N/A,,Overcast,160,2013-03-18 23:15:00
7:35 PM,61.2,53.6,76,29.93,10.0,SSE,4.6,-,N/A,,Overcast,160,2013-03-18 23:35:00
7:55 PM,60.4,53.4,78,29.92,10.0,South,5.8,-,N/A,,Overcast,170,2013-03-18 23:55:00
8:15 PM,59.5,53.6,81,29.92,10.0,South,3.5,-,N/A,,Overcast,180,2013-03-19 00:15:00
8:35 PM,58.5,53.2,83,29.93,10.0,Calm,Calm,-,N/A,,Mostly Cloudy,0,2013-03-19 00:35:00
8:55 PM,58.5,53.6,84,29.91,10.0,SE,4.6,-,N/A,,Overcast,130,2013-03-19 00:55:00
9:15 PM,57.7,53.8,87,29.90,10.0,SE,4.6,-,N/A,,Overcast,140,2013-03-19 01:15:00
9:35 PM,57.2,53.6,88,29.89,10.0,SE,3.5,-,N/A,,Overcast,140,2013-03-19 01:35:00
9:55 PM,57.2,54.3,90,29.90,10.0,East,3.5,-,N/A,,Overcast,100,2013-03-19 01:55:00
10:15 PM,57.0,54.5,91,29.90,7.0,Calm,Calm,-,N/A,,Overcast,0,2013-03-19 02:15:00
10:35 PM,56.5,54.1,92,29.91,7.0,Calm,Calm,-,N/A,,Overcast,0,2013-03-19 02:35:00
10:55 PM,56.5,54.5,93,29.90,7.0,Calm,Calm,-,N/A,,Overcast,0,2013-03-19 02:55:00
11:15 PM,56.3,54.5,94,29.90,7.0,Calm,Calm,-,N/A,,Mostly Cloudy,0,2013-03-19 03:15:00
11:55 PM,57.2,54.7,91,29.90,10.0,WNW,3.5,-,N/A,,Mostly Cloudy,300,2013-03-19 03:55:00